This is the latest recevied weather packets stored in our database for station/object K1RTA-1. If no packets are shown the sender has not sent any weather packets the latest 1 day(s).
| Time | Temp. | Humidity | Pressure | Rain* | Wind** | Luminosity | Snow |
|---|---|---|---|---|---|---|---|
| 1836274462 | 15° C | 91% | 1020.2 hPa | 0 mm | 0 m/s | - | - |
| 1836274312 | 15.56° C | 91% | 1019.9 hPa | 0 mm | 0 m/s | - | - |
| 1778043082 | 15° C | 86% | 1014.5 hPa | 0 mm | 4.92 m/s, 218° | - | - |
| 1778042183 | 15° C | 85% | 1014.5 hPa | 0 mm | 4.92 m/s, 223° | - | - |
| 1778041282 | 15° C | 85% | 1014.5 hPa | 0 mm | 4.47 m/s, 222° | - | - |
| 1778040384 | 15° C | 84% | 1014.5 hPa | 0 mm | 4.92 m/s, 220° | - | - |
| 1778039483 | 15° C | 84% | 1014.4 hPa | 0 mm | 4.92 m/s, 218° | - | - |
| 1778038582 | 15° C | 83% | 1014.3 hPa | 0 mm | 4.92 m/s, 221° | - | - |
| 1778037684 | 15.56° C | 83% | 1014.2 hPa | 0 mm | 4.02 m/s, 216° | - | - |
| 1778036783 | 15.56° C | 82% | 1014.1 hPa | 0 mm | 4.92 m/s, 221° | - | - |
| 1778035883 | 15.56° C | 81% | 1014 hPa | 0 mm | 4.92 m/s, 218° | - | - |
| 1778034983 | 15.56° C | 81% | 1014 hPa | 0 mm | 5.36 m/s, 221° | - | - |
| 1778034083 | 15.56° C | 80% | 1014.2 hPa | 0 mm | 4.92 m/s, 220° | - | - |
| 1778033182 | 15.56° C | 80% | 1014.2 hPa | 0 mm | 4.92 m/s, 219° | - | - |
| 1778032284 | 15° C | 79% | 1014.5 hPa | 0 mm | 4.02 m/s, 223° | - | - |
| 1778031382 | 15° C | 80% | 1014.7 hPa | 0 mm | 4.02 m/s, 224° | - | - |
| 1778030484 | 15° C | 79% | 1014.4 hPa | 0 mm | 4.02 m/s, 228° | - | - |
| 1778029583 | 15° C | 78% | 1014.2 hPa | 0 mm | 4.02 m/s, 226° | - | - |
| 1778028684 | 15° C | 76% | 1013.9 hPa | 0 mm | 4.02 m/s, 226° | - | - |
| 1778027783 | 15° C | 75% | 1013.6 hPa | 0 mm | 3.58 m/s, 221° | - | - |
| 1778026883 | 15° C | 74% | 1013.1 hPa | 0 mm | 4.47 m/s, 218° | - | - |
| 1778025983 | 15° C | 73% | 1013 hPa | 0 mm | 3.58 m/s, 217° | - | - |
| 1778025084 | 15.56° C | 73% | 1013 hPa | 0 mm | 4.02 m/s, 223° | - | - |
| 1778024183 | 15.56° C | 73% | 1012.8 hPa | 0 mm | 4.47 m/s, 228° | - | - |
| 1778023283 | 15.56° C | 75% | 1012.7 hPa | 0 mm | 4.47 m/s, 224° | - | - |
* Rain latest hour (hover to see other rain measurements)
** Current wind speed in m/s (hover to see current wind gust speed)